Location: Asheville, NC
(35.6000°N, 82.5500°W)
Time: 09:34:02
(UTC-04:00)

Vanguard 1 Rocket - Pass Details

Date: 12 December 2017
Orbit: 652 x 4225 km, 34.3° (Epoch: 16 July)

Event Time Altitude Azimuth Distance (km) Brightness Sun altitude
Rises 16:04:29 0° 216° (SW) 3,815 12.3 11.5°
Reaches altitude 10° 16:06:49 10° 207° (SSW) 3,142 11.7 11.1°
Maximum altitude 16:14:12 40° 140° (SE) 2,434 9.7 10.0°
Drops below altitude 10° 16:27:40 10° 78° (ENE) 5,686 10.9 7.8°
Sets 16:33:39 0° 73° (ENE) 7,282 11.4 6.8°
